Flag for India Weather past 2 weeks in Banswara, Rajasthan, India

Now
86 °F

Haze.


Feels Like: 92 °F
Forecast: 85 / 109 °F
Wind: 5 mph from Northwest

Location: Ahmadabad Airport

Current Time: May 29, 2015 at 6:19:31 AM

Latest Report: May 29, 2015 at 5:40 AM


Visibility: 2 mi

Pressure: 29.68 "Hg

Humidity: 62%

Dew point: 72 °F

Location of BanswaraLocation

Historic Weather in Banswara — Graph

°F

Banswara temperature yesterday

Maximum temperature yesterday: 113 °F (at 4:10 PM)
Minimum temperature yesterday: 84 °F (at 6:40 AM)
Average temperature yesterday: 97 °F

Past Weeks' High & Low Weather Summary

 TemperatureHumidityPressure
High117 °F (May 16, 3:40 PM)100% (May 26, 1:10 PM)29.80 "Hg (May 26, 1:10 PM)
Low50 °F (May 26, 1:10 PM)10% (May 17, 5:10 PM)29.50 "Hg (May 17, 4:10 PM)
Average97 °F45%29.66 "Hg
* Reported May 14 3:40 AM — May 29 4:10 AM, Banswara, Weather by CustomWeather, © 2015

Note: Actual official high and low records may vary slightly from our data, if they occured in-between our weather recording intervals... More about our weather records

Advertising

Banswara weather history for previous 24 hours

 ConditionsComfort  
Time TempWeatherWind HumidityBarometerVisibility
4:10 AM
Fri, May 29
88 °FHaze.5 mph59%29.65 "Hg2 mi
2:40 AM88 °FHaze.6 mph75%29.62 "Hg2 mi
1:40 AM90 °FHaze.7 mph71%29.65 "Hg2 mi
1:10 AM90 °FHaze.8 mph71%29.65 "Hg2 mi
11:40 PM
Thu, May 28
91 °FHaze.8 mph71%29.65 "Hg2 mi
11:10 PM91 °FHaze.8 mph71%29.65 "Hg2 mi
10:10 PM93 °FClear.9 mph63%29.65 "Hg2 mi
9:10 PM95 °FClear.12 mph60%29.62 "Hg2 mi
8:40 PM97 °FClear.12 mph56%29.62 "Hg2 mi
8:10 PM99 °FClear.13 mph53%29.62 "Hg2 mi
7:40 PM102 °FClear.9 mph45%29.59 "Hg2 mi
5:10 PM113 °FClear.6 mph22%29.56 "Hg4 mi
4:40 PM113 °FClear.7 mph22%29.56 "Hg4 mi
4:10 PM113 °FClear.6 mph24%29.56 "Hg4 mi
3:40 PM111 °FClear.7 mph27%29.59 "Hg4 mi
3:10 PM109 °FClear.9 mph30%29.59 "Hg4 mi
2:40 PM109 °FClear.6 mph30%29.59 "Hg4 mi
2:10 PM108 °FClear.7 mph34%29.62 "Hg4 mi
1:40 PM108 °FClear.8 mph34%29.65 "Hg4 mi
1:10 PM104 °FClear.7 mph40%29.65 "Hg4 mi
12:40 PM102 °FClear.7 mph42%29.68 "Hg4 mi
12:10 PM100 °FClear.5 mph47%29.71 "Hg4 mi
11:40 AM99 °FClear.7 mph50%29.71 "Hg3 mi
11:10 AM97 °FPassing clouds.3 mph56%29.74 "Hg3 mi
10:40 AM95 °FPassing clouds.6 mph56%29.74 "Hg3 mi
9:40 AM91 °FScattered clouds.7 mph63%29.74 "Hg2 mi
8:40 AM88 °FScattered clouds.7 mph70%29.74 "Hg2 mi
8:10 AM86 °FScattered clouds.9 mph75%29.74 "Hg2 mi
7:40 AM86 °FScattered clouds.8 mph75%29.74 "Hg2 mi
7:10 AM86 °FScattered clouds.7 mph75%29.71 "Hg2 mi
6:40 AM84 °FHaze.7 mph79%29.68 "Hg2 mi
Weather by CustomWeather, © 2015

See weather overviewHow to use our weather pages